Regional Weather Roundup
Issued by NWS Sterling, VA

Home | Current Version | Previous Version | Graphics & Text | Print | Product List | Glossary On
Versions: 1 2 3 4 5 6 7 8 9 10 11 12 13 14 15 16 17 18 19 20 21 22 23 24 25 26 27 28
000
ASUS41 KLWX 240910
RWRLWX

REGIONAL WEATHER ROUNDUP
NATIONAL WEATHER SERVICE BALTIMORE MD/WASHINGTON DC
400 AM EST FRI FEB 24 2017

Note: "FAIR" indicates few or no clouds below 12,000 feet
with no significant weather and/or obstructions to visibility.
 TC=TEMPERATURE CELSIUS

 * =Non NWS site. Station does not report precipitation (e.g. rain,
    snow, etc.), thunder, or fog.

DCZ001-MDZ009-015-VAZ040>042-051-053>054-241000-
WASHINGTON METRO

CITY           SKY/WX    TMP DP  RH WIND       PRES   REMARKS
WASHINGTON NAT PTCLDY    57  53  86 S7        29.91S
DULLES         PTCLDY    58  50  75 S6        29.89S
ANDREWS AFB    PTCLDY    56  52  87 S8        29.90R
FT BELVOIR     CLEAR     49  47  90 CALM      29.90S
QUANTICO       CLEAR     55  53  93 S6        29.92R
COLLEGE PARK*  CLEAR     50  48  93 CALM      29.90S
LEESBURG*      PTCLDY    57  54  88 MISG      29.90R
MANASSAS*      CLEAR     46  44  93 CALM      29.90S
GAITHERSBURG*  CLEAR     55  48  76 SE8       29.93S

$$

MDZ006>007-011-014-241000-
BALTIMORE METRO

CITY           SKY/WX    TMP DP  RH WIND       PRES   REMARKS
BWI AIRPORT    PTCLDY    49  47  93 CALM      29.90S
MD SCIENCE CTR   N/A     54  48  80 MISG      29.91S
MARTIN STATE   CLEAR     46  46 100 CALM      29.92S
ANNAPOLIS      CLEAR     49  47  93 SE5       29.91R
FORT MEADE*    CLEAR     45  43  93 CALM      29.93S

$$

MDZ012-015-019>023-241000-
MARYLAND EASTERN SHORE

CITY           SKY/WX    TMP DP  RH WIND       PRES   REMARKS
OCEAN CITY     CLEAR     51  49  92 SW5       29.95F
SALISBURY      CLEAR     54  53  97 S6        29.94S
BAY BRIDGE AP* CLEAR     52  50  93 S8        29.92R
CAMBRIDGE*     CLEAR     54  50  87 VRB5      29.93S
EASTON*        CLEAR     56  51  85 S6        29.96S

$$

MDZ017>025-241000-
SOUTHERN MARYLAND

CITY           SKY/WX    TMP DP  RH WIND       PRES   REMARKS
PATUXENT RIVER CLEAR     48  48 100 CALM      29.92R
ST INIGOES     CLEAR     55  52  89 SE5       29.91S
LEONARDTOWN*   CLEAR     55  52  88 CALM      29.93S

$$

MDZ003>005-241000-
NORTH CENTRAL MARYLAND

CITY           SKY/WX    TMP DP  RH WIND       PRES   REMARKS
FREDERICK*     PTCLDY    50  50 100 CALM      29.91S
HAGERSTOWN APT PTCLDY    60  52  74 S8        29.85S
WESTMINSTER*   PTCLDY    57  52  82 S7        29.89R

$$

MDZ501>502-241000-
WESTERN MARYLAND

CITY           SKY/WX    TMP DP  RH WIND       PRES   REMARKS
OAKLAND*       CLOUDY    50  46  87 S8        29.88S
CUMBERLAND*    PTCLDY    52  50  93 CALM      29.89S

$$

VAZ025>031-241000-
SHENANDOAH VALLEY

CITY           SKY/WX    TMP DP  RH WIND       PRES   REMARKS
WINCHESTER*    CLEAR     50  46  87 S7        29.87R
FRONT ROYAL*   CLEAR     55  50  82 S3        29.86S
LURAY*         CLEAR     48  48 100 CALM      29.88S
NEW MARKET*    PTCLDY    43  41  93 CALM      29.88S
STAUNTON*      PTCLDY    44  43  97 CALM      29.91S
WAYNESBORO*    CLEAR     51  47  88 N9        29.89F

$$

WVZ021-048>050-054>055-241000-
EASTERN WEST VIRGINIA PANHANDLE

CITY           SKY/WX    TMP DP  RH WIND       PRES   REMARKS
MARTINSBURG    CLEAR     55  49  80 CALM      29.85S
PETERSBURG*    MOCLDY    47  46  95 CALM      29.87S

$$

VAZ036>039-050-241000-
CENTRAL FOOTHILLS

CITY           SKY/WX    TMP DP  RH WIND       PRES   REMARKS
CHARLOTTESVILL CLEAR     55  50  83 SW3       29.89R
CULPEPER*      CLEAR     49  49  99 CALM      29.91R
ORANGE*        CLEAR     52  48  87 CALM      29.91S
GORDONSVILLE*  CLEAR     45  45  99 CALM      29.90S
WARRENTON*     CLEAR     56  49  76 CALM      29.89S

$$

VAZ055>057-241000-
NORTH AND CENTRAL PIEDMONT

CITY           SKY/WX    TMP DP  RH WIND       PRES   REMARKS
FREDERICKSBRG* CLEAR     53  53 100 CALM      29.90S
STAFFORD*      CLEAR     53  53  99 CALM      29.95R

$$

NCZ024-NYZ072-PAZ021-071-VAZ022-071-241000-
OTHER REGIONAL OBSERVATIONS

CITY           SKY/WX    TMP DP  RH WIND       PRES   REMARKS
NEW YORK CITY  PTCLDY    59  51  75 MISG      29.94R
PHILADELPHIA   PTCLDY    53  50  89 W5        29.92S
PITTSBURGH     MOCLDY    55  52  89 S5        29.79F
ROANOKE        PTCLDY    49  47  93 CALM      29.92S
RICHMOND       CLEAR     54  54 100 CALM      29.92R
RALEIGH        PTCLDY    52  49  89 CALM      29.93R

$$

ANZ530>537-241000-
MARINE OBSERVATIONS

STATION/POSITION TIME  TEMP    WIND        PRES
                       AIR SEA DIR/SP/G
                 (UTC) (F)     (DEG/KT/KT) (MB)
THOMAS PT LIGHT  0900   49 44  180/  7/  9   N/A
BALT KEY BRIDGE  0848   52     110/  3/  3 1012.6F
COVE POINT       0848   47     190/  9/  9 1013.7R
LEWISETTA        0848   57 47  210/  5/  5 1012.8S
SOLOMONS ISLAND  0848   51 45   90/  5/  5   N/A
PINEY POINT      0848          130/  5/  6   N/A

$$





USA.gov is the U.S. government's official web portal to all federal, state and local government web resources and services.